| time (UTC) | temp C | wind direction | speed KPH | gust KPH | rain 1hr cm | rain 24hr cm | rain mn cm | humidity % | barometer mb |
| 20260510211403 | 6 | 60 | 0.0 | 0.0 | 0.00 | 0.00 | 0.00 | 68 | 1015.2 |
| 20260510210905 | 6 | 60 | 0.0 | 0.0 | 0.00 | 0.00 | 0.00 | 68 | 1015.2 |
| 20260510210404 | 6 | 60 | 0.0 | 0.0 | 0.00 | 0.00 | 0.00 | 68 | 1015.2 |
| 20260510205904 | 6 | 60 | 0.0 | 0.0 | 0.00 | 0.00 | 0.00 | 68 | 1015.3 |
| 20260510205404 | 6 | 60 | 0.0 | 1.6 | 0.00 | 0.00 | 0.00 | 67 | 1015.3 |
| 20260510204903 | 7 | 60 | 0.0 | 1.6 | 0.00 | 0.00 | 0.00 | 66 | 1015.5 |
| 20260510204404 | 7 | 60 | 0.0 | 1.6 | 0.00 | 0.00 | 0.00 | 66 | 1015.5 |
| 20260510203903 | 7 | 60 | 0.0 | 1.6 | 0.00 | 0.00 | 0.00 | 66 | 1015.5 |
| 20260510202903 | 7 | 60 | 0.0 | 0.0 | 0.00 | 0.00 | 0.00 | 66 | 1015.5 |
| 20260510202404 | 7 | 60 | 0.0 | 3.2 | 0.00 | 0.00 | 0.00 | 65 | 1015.6 |
| 20260510201404 | 7 | 38 | 0.0 | 4.8 | 0.00 | 0.00 | 0.00 | 65 | 1015.5 |
| 20260510200904 | 8 | 49 | 0.0 | 4.8 | 0.00 | 0.00 | 0.00 | 65 | 1015.6 |
| 20260510195904 | 8 | 57 | 0.0 | 4.8 | 0.00 | 0.00 | 0.00 | 64 | 1015.7 |
| 20260510195403 | 8 | 54 | 0.0 | 4.8 | 0.00 | 0.00 | 0.00 | 64 | 1015.7 |
| 20260510194904 | 8 | 67 | 1.6 | 9.7 | 0.00 | 0.00 | 0.00 | 62 | 1015.8 |
| 20260510194404 | 8 | 47 | 3.2 | 9.7 | 0.00 | 0.00 | 0.00 | 62 | 1015.8 |
| 20260510193903 | 8 | 60 | 1.6 | 4.8 | 0.00 | 0.00 | 0.00 | 62 | 1015.9 |
| 20260510192904 | 9 | 69 | 3.2 | 9.7 | 0.00 | 0.00 | 0.00 | 60 | 1015.9 |
| 20260510191904 | 9 | 56 | 3.2 | 4.8 | 0.00 | 0.00 | 0.00 | 59 | 1015.9 |
| 20260510191403 | 10 | 46 | 1.6 | 11.3 | 0.00 | 0.00 | 0.00 | 59 | 1016.0 |
| 20260510190905 | 10 | 61 | 1.6 | 11.3 | 0.00 | 0.00 | 0.00 | 58 | 1016.0 |
| 20260510190405 | 10 | 60 | 3.2 | 11.3 | 0.00 | 0.00 | 0.00 | 58 | 1016.0 |
| 20260510185905 | 10 | 54 | 4.8 | 12.9 | 0.00 | 0.00 | 0.00 | 58 | 1016.1 |
| 20260510185405 | 10 | 57 | 4.8 | 14.5 | 0.00 | 0.00 | 0.00 | 57 | 1016.1 |
| 20260510184906 | 10 | 55 | 4.8 | 14.5 | 0.00 | 0.00 | 0.00 | 56 | 1016.1 |
| 20260510184404 | 11 | 70 | 4.8 | 14.5 | 0.00 | 0.00 | 0.00 | 55 | 1016.2 |
| 20260510183905 | 11 | 56 | 4.8 | 16.1 | 0.00 | 0.00 | 0.00 | 55 | 1016.2 |
| 20260510183405 | 11 | 57 | 4.8 | 16.1 | 0.00 | 0.00 | 0.00 | 55 | 1016.2 |
| 20260510182905 | 11 | 59 | 4.8 | 14.5 | 0.00 | 0.00 | 0.00 | 53 | 1016.1 |
| 20260510182405 | 12 | 53 | 8.0 | 19.3 | 0.00 | 0.00 | 0.00 | 52 | 1016.1 |
| 20260510180905 | 13 | 63 | 4.8 | 16.1 | 0.00 | 0.00 | 0.00 | 48 | 1016.1 |
| 20260510180405 | 14 | 87 | 3.2 | 16.1 | 0.00 | 0.00 | 0.00 | 47 | 1016.0 |
| 20260510175905 | 15 | 61 | 4.8 | 16.1 | 0.00 | 0.00 | 0.00 | 45 | 1016.1 |
| 20260510175405 | 15 | 65 | 4.8 | 16.1 | 0.00 | 0.00 | 0.00 | 44 | 1016.0 |
| 20260510174405 | 16 | 44 | 8.0 | 19.3 | 0.00 | 0.00 | 0.00 | 44 | 1016.1 |
| 20260510173905 | 16 | 64 | 8.0 | 22.5 | 0.00 | 0.00 | 0.00 | 44 | 1016.1 |
| 20260510173404 | 16 | 52 | 4.8 | 22.5 | 0.00 | 0.00 | 0.00 | 44 | 1016.1 |
| 20260510172905 | 16 | 62 | 6.4 | 20.9 | 0.00 | 0.00 | 0.00 | 45 | 1016.2 |
| 20260510172406 | 16 | 35 | 6.4 | 20.9 | 0.00 | 0.00 | 0.00 | 44 | 1016.2 |
| 20260510171905 | 16 | 58 | 4.8 | 12.9 | 0.00 | 0.00 | 0.00 | 46 | 1016.2 |
| 20260510171405 | 15 | 41 | 4.8 | 14.5 | 0.00 | 0.00 | 0.00 | 46 | 1016.3 |
| 20260510170905 | 16 | 66 | 4.8 | 16.1 | 0.00 | 0.00 | 0.00 | 45 | 1016.3 |
| 20260510170405 | 16 | 42 | 6.4 | 19.3 | 0.00 | 0.00 | 0.00 | 46 | 1016.4 |
| 20260510165905 | 15 | 75 | 8.0 | 19.3 | 0.00 | 0.00 | 0.00 | 46 | 1016.4 |
| 20260510165404 | 15 | 57 | 8.0 | 19.3 | 0.00 | 0.00 | 0.00 | 47 | 1016.4 |
| 20260510164905 | 16 | 49 | 4.8 | 16.1 | 0.00 | 0.00 | 0.00 | 46 | 1016.5 |
| 20260510163905 | 15 | 49 | 6.4 | 19.3 | 0.00 | 0.00 | 0.00 | 48 | 1016.6 |
| 20260510163405 | 15 | 56 | 6.4 | 19.3 | 0.00 | 0.00 | 0.00 | 47 | 1016.7 |
| 20260510162905 | 15 | 43 | 4.8 | 14.5 | 0.00 | 0.00 | 0.00 | 46 | 1016.7 |
| 20260510162405 | 16 | 67 | 3.2 | 19.3 | 0.00 | 0.00 | 0.00 | 47 | 1016.8 |
| 20260510161905 | 16 | 67 | 4.8 | 19.3 | 0.00 | 0.00 | 0.00 | 45 | 1016.9 |
| 20260510160905 | 16 | 34 | 4.8 | 14.5 | 0.00 | 0.00 | 0.00 | 46 | 1016.8 |
| 20260510160405 | 16 | 64 | 4.8 | 16.1 | 0.00 | 0.00 | 0.00 | 47 | 1016.8 |
| 20260510155405 | 15 | 60 | 4.8 | 19.3 | 0.00 | 0.00 | 0.00 | 48 | 1017.1 |
| 20260510154906 | 15 | 59 | 8.0 | 19.3 | 0.00 | 0.00 | 0.00 | 45 | 1017.2 |
| 20260510154405 | 16 | 62 | 6.4 | 19.3 | 0.00 | 0.00 | 0.00 | 47 | 1017.1 |
| 20260510153405 | 16 | 62 | 6.4 | 20.9 | 0.00 | 0.00 | 0.00 | 44 | 1017.1 |
| 20260510152904 | 16 | 46 | 8.0 | 19.3 | 0.00 | 0.00 | 0.00 | 45 | 1017.2 |
| 20260510152405 | 16 | 49 | 4.8 | 16.1 | 0.00 | 0.00 | 0.00 | 47 | 1017.2 |
| 20260510151904 | 16 | 65 | 6.4 | 25.7 | 0.00 | 0.00 | 0.00 | 46 | 1017.2 |
| 20260510151405 | 16 | 46 | 8.0 | 25.7 | 0.00 | 0.00 | 0.00 | 45 | 1017.2 |
| 20260510150905 | 16 | 53 | 4.8 | 16.1 | 0.00 | 0.00 | 0.00 | 45 | 1017.3 |
| 20260510150404 | 16 | 72 | 1.6 | 14.5 | 0.00 | 0.00 | 0.00 | 44 | 1017.4 |
| 20260510145904 | 17 | 0 | 0.0 | 0.0 | 0.00 | 0.00 | 0.00 | 45 | 1017.4 |
| 20260510145405 | 17 | 0 | 0.0 | 0.0 | 0.00 | 0.00 | 0.00 | 45 | 1017.5 |
| 20260510144905 | 17 | 0 | 0.0 | 0.0 | 0.00 | 0.00 | 0.00 | 45 | 1017.4 |
| 20260510143905 | 17 | 0 | 0.0 | 0.0 | 0.00 | 0.00 | 0.00 | 45 | 1017.5 |
| 20260510142405 | 17 | 0 | 0.0 | 9.7 | 0.00 | 0.00 | 0.00 | 45 | 1017.6 |
| 20260510141405 | 17 | 15 | 9.7 | 11.3 | 0.00 | 0.00 | 0.00 | 45 | 1017.7 |
| 20260510140905 | 17 | 15 | 9.7 | 20.9 | 0.00 | 0.00 | 0.00 | 45 | 1017.6 |
| 20260510140405 | 17 | 40 | 11.3 | 20.9 | 0.00 | 0.00 | 0.00 | 45 | 1017.8 |
| 20260510135904 | 17 | 50 | 8.0 | 14.5 | 0.00 | 0.00 | 0.00 | 44 | 1017.7 |
| 20260510134905 | 16 | 75 | 9.7 | 12.9 | 0.00 | 0.00 | 0.00 | 46 | 1017.8 |
| 20260510134407 | 16 | 49 | 12.9 | 12.9 | 0.00 | 0.00 | 0.00 | 46 | 1017.7 |
| 20260510133905 | 16 | 49 | 12.9 | 25.7 | 0.00 | 0.00 | 0.00 | 46 | 1018.0 |
| 20260510133408 | 16 | 32 | 4.8 | 25.7 | 0.00 | 0.00 | 0.00 | 47 | 1017.9 |
| 20260510132905 | 16 | 28 | 9.7 | 25.7 | 0.00 | 0.00 | 0.00 | 47 | 1017.9 |
| 20260510131905 | 15 | 43 | 6.4 | 19.3 | 0.00 | 0.00 | 0.00 | 51 | 1018.0 |
| 20260510131405 | 15 | 73 | 8.0 | 19.3 | 0.00 | 0.00 | 0.00 | 50 | 1018.2 |
| 20260510130905 | 15 | 74 | 8.0 | 19.3 | 0.00 | 0.00 | 0.00 | 51 | 1018.2 |
| 20260510130404 | 15 | 45 | 6.4 | 24.1 | 0.00 | 0.00 | 0.00 | 51 | 1018.2 |
| 20260510125905 | 15 | 66 | 6.4 | 24.1 | 0.00 | 0.00 | 0.00 | 52 | 1018.2 |
| 20260510125405 | 15 | 69 | 6.4 | 32.2 | 0.00 | 0.00 | 0.00 | 54 | 1018.2 |
| 20260510124906 | 14 | 65 | 8.0 | 32.2 | 0.00 | 0.00 | 0.00 | 52 | 1018.4 |
| 20260510124404 | 14 | 53 | 4.8 | 24.1 | 0.00 | 0.00 | 0.00 | 54 | 1018.4 |
| 20260510123905 | 15 | 67 | 11.3 | 24.1 | 0.00 | 0.00 | 0.00 | 53 | 1018.5 |
| 20260510123405 | 15 | 66 | 9.7 | 19.3 | 0.00 | 0.00 | 0.00 | 53 | 1018.6 |
| 20260510122905 | 14 | 24 | 9.7 | 22.5 | 0.00 | 0.00 | 0.00 | 53 | 1018.6 |
| 20260510122404 | 15 | 55 | 3.2 | 22.5 | 0.00 | 0.00 | 0.00 | 53 | 1018.8 |
| 20260510121905 | 15 | 43 | 6.4 | 22.5 | 0.00 | 0.00 | 0.00 | 54 | 1018.8 |
| 20260510121405 | 15 | 48 | 9.7 | 19.3 | 0.00 | 0.00 | 0.00 | 54 | 1018.8 |
| 20260510120905 | 14 | 50 | 8.0 | 24.1 | 0.00 | 0.00 | 0.00 | 55 | 1018.8 |
| 20260510120405 | 14 | 61 | 9.7 | 25.7 | 0.00 | 0.00 | 0.00 | 53 | 1019.0 |
| 20260510115905 | 14 | 64 | 11.3 | 25.7 | 0.00 | 0.00 | 0.00 | 55 | 1019.1 |
| 20260510115405 | 13 | 55 | 11.3 | 22.5 | 0.00 | 0.00 | 0.00 | 57 | 1019.0 |
| 20260510114905 | 13 | 32 | 6.4 | 20.9 | 0.00 | 0.00 | 0.00 | 58 | 1019.1 |
| 20260510114405 | 13 | 66 | 9.7 | 20.9 | 0.00 | 0.00 | 0.00 | 57 | 1019.1 |
| 20260510113904 | 13 | 56 | 8.0 | 16.1 | 0.00 | 0.00 | 0.00 | 58 | 1019.2 |
| 20260510113405 | 13 | 27 | 4.8 | 14.5 | 0.00 | 0.00 | 0.00 | 60 | 1019.3 |
| 20260510112405 | 13 | 59 | 9.7 | 24.1 | 0.00 | 0.00 | 0.00 | 59 | 1019.4 |
| 20260510111905 | 13 | 61 | 9.7 | 24.1 | 0.00 | 0.00 | 0.00 | 60 | 1019.5 |
| 20260510111404 | 12 | 54 | 9.7 | 24.1 | 0.00 | 0.00 | 0.00 | 59 | 1019.4 |
| 20260510110905 | 12 | 44 | 9.7 | 24.1 | 0.00 | 0.00 | 0.00 | 60 | 1019.4 |
| 20260510110405 | 12 | 36 | 4.8 | 20.9 | 0.00 | 0.00 | 0.00 | 61 | 1019.5 |
| 20260510104905 | 12 | 28 | 4.8 | 19.3 | 0.00 | 0.00 | 0.00 | 62 | 1019.7 |
| 20260510104405 | 12 | 26 | 8.0 | 19.3 | 0.00 | 0.00 | 0.00 | 63 | 1019.7 |
| 20260510103904 | 12 | 29 | 8.0 | 22.5 | 0.00 | 0.00 | 0.00 | 64 | 1019.7 |
| 20260510103406 | 12 | 58 | 8.0 | 22.5 | 0.00 | 0.00 | 0.00 | 65 | 1019.7 |
| 20260510102904 | 12 | 39 | 4.8 | 19.3 | 0.00 | 0.00 | 0.00 | 66 | 1019.7 |
| 20260510102405 | 11 | 58 | 8.0 | 22.5 | 0.00 | 0.00 | 0.00 | 66 | 1019.8 |
| 20260510101906 | 11 | 46 | 8.0 | 22.5 | 0.00 | 0.00 | 0.00 | 66 | 1019.8 |
| 20260510100904 | 11 | 45 | 4.8 | 19.3 | 0.00 | 0.00 | 0.00 | 67 | 1019.8 |
| 20260510100405 | 11 | 67 | 9.7 | 19.3 | 0.00 | 0.00 | 0.00 | 67 | 1019.8 |
| 20260510095905 | 11 | 59 | 6.4 | 19.3 | 0.00 | 0.00 | 0.00 | 69 | 1019.8 |
| 20260510095406 | 11 | 37 | 8.0 | 19.3 | 0.00 | 0.00 | 0.00 | 69 | 1019.9 |
| 20260510094904 | 11 | 21 | 3.2 | 16.1 | 0.00 | 0.00 | 0.00 | 70 | 1019.9 |
| 20260510094405 | 11 | 49 | 4.8 | 20.9 | 0.00 | 0.00 | 0.00 | 71 | 1019.9 |
| 20260510093906 | 10 | 30 | 8.0 | 20.9 | 0.00 | 0.00 | 0.00 | 70 | 1020.0 |
| 20260510092404 | 10 | 36 | 4.8 | 19.3 | 0.00 | 0.00 | 0.00 | 72 | 1020.1 |
| 20260510091905 | 10 | 62 | 9.7 | 19.3 | 0.00 | 0.00 | 0.00 | 72 | 1020.1 |
| 20260510091406 | 10 | 38 | 3.2 | 25.7 | 0.00 | 0.00 | 0.00 | 73 | 1020.1 |
| 20260510090405 | 10 | 49 | 8.0 | 19.3 | 0.00 | 0.00 | 0.00 | 72 | 1020.2 |
| 20260510085904 | 10 | 48 | 8.0 | 19.3 | 0.00 | 0.00 | 0.00 | 72 | 1020.3 |
| 20260510085405 | 10 | 49 | 9.7 | 19.3 | 0.00 | 0.00 | 0.00 | 72 | 1020.3 |
| 20260510084905 | 10 | 65 | 8.0 | 19.3 | 0.00 | 0.00 | 0.00 | 73 | 1020.3 |
| 20260510083405 | 11 | 48 | 11.3 | 24.1 | 0.00 | 0.00 | 0.00 | 71 | 1020.3 |
| 20260510082905 | 11 | 56 | 8.0 | 19.3 | 0.00 | 0.00 | 0.00 | 71 | 1020.4 |
| 20260510082405 | 11 | 40 | 4.8 | 19.3 | 0.00 | 0.00 | 0.00 | 72 | 1020.4 |
| 20260510081905 | 11 | 34 | 6.4 | 19.3 | 0.00 | 0.00 | 0.00 | 73 | 1020.3 |
| 20260510080905 | 10 | 40 | 4.8 | 16.1 | 0.00 | 0.00 | 0.00 | 73 | 1020.2 |
| 20260510080405 | 10 | 23 | 4.8 | 16.1 | 0.00 | 0.00 | 0.00 | 74 | 1020.1 |
| 20260510075905 | 10 | 47 | 4.8 | 14.5 | 0.00 | 0.00 | 0.00 | 74 | 1020.0 |
| 20260510075404 | 10 | 31 | 4.8 | 16.1 | 0.00 | 0.00 | 0.00 | 74 | 1020.1 |
| 20260510074905 | 10 | 57 | 4.8 | 19.3 | 0.00 | 0.00 | 0.00 | 74 | 1020.1 |
| 20260510074405 | 10 | 30 | 6.4 | 19.3 | 0.00 | 0.00 | 0.00 | 74 | 1020.0 |
| 20260510073905 | 10 | 24 | 8.0 | 20.9 | 0.00 | 0.00 | 0.00 | 75 | 1020.0 |
| 20260510073405 | 10 | 21 | 9.7 | 20.9 | 0.00 | 0.00 | 0.00 | 75 | 1020.0 |
| 20260510072904 | 9 | 20 | 8.0 | 20.9 | 0.00 | 0.00 | 0.00 | 76 | 1020.0 |
| 20260510071905 | 9 | 8 | 6.4 | 22.5 | 0.00 | 0.00 | 0.00 | 76 | 1020.0 |
| 20260510070904 | 9 | 29 | 11.3 | 25.7 | 0.00 | 0.00 | 0.00 | 77 | 1019.9 |
| 20260510070405 | 9 | 67 | 6.4 | 27.4 | 0.00 | 0.00 | 0.00 | 77 | 1019.9 |
| 20260510065905 | 9 | 3 | 6.4 | 27.4 | 0.00 | 0.00 | 0.00 | 77 | 1019.8 |
| 20260510065406 | 8 | 32 | 8.0 | 22.5 | 0.00 | 0.00 | 0.00 | 78 | 1019.8 |
| 20260510064905 | 8 | 55 | 8.0 | 20.9 | 0.00 | 0.00 | 0.00 | 78 | 1019.8 |
| 20260510064404 | 8 | 23 | 8.0 | 19.3 | 0.00 | 0.00 | 0.00 | 79 | 1019.7 |
| 20260510063905 | 8 | 56 | 8.0 | 19.3 | 0.00 | 0.00 | 0.00 | 79 | 1019.7 |
| 20260510062404 | 8 | 0 | 4.8 | 19.3 | 0.00 | 0.00 | 0.00 | 79 | 1019.7 |
| 20260510061905 | 8 | 33 | 9.7 | 19.3 | 0.00 | 0.00 | 0.00 | 80 | 1019.7 |
| 20260510061405 | 8 | 42 | 4.8 | 12.9 | 0.00 | 0.00 | 0.00 | 80 | 1019.7 |
| 20260510055405 | 8 | 9 | 9.7 | 20.9 | 0.00 | 0.00 | 0.00 | 81 | 1019.7 |
| 20260510054405 | 8 | 44 | 9.7 | 24.1 | 0.00 | 0.00 | 0.00 | 81 | 1019.8 |
| 20260510053905 | 8 | 14 | 4.8 | 16.1 | 0.00 | 0.00 | 0.00 | 81 | 1019.8 |
| 20260510052904 | 8 | 37 | 4.8 | 19.3 | 0.00 | 0.00 | 0.00 | 81 | 1019.7 |
| 20260510052405 | 8 | 40 | 8.0 | 19.3 | 0.00 | 0.00 | 0.00 | 81 | 1019.7 |
| 20260510051904 | 8 | 41 | 4.8 | 19.3 | 0.00 | 0.00 | 0.00 | 82 | 1019.8 |
| 20260510051405 | 8 | 26 | 4.8 | 19.3 | 0.00 | 0.00 | 0.00 | 82 | 1019.8 |
| 20260510050904 | 8 | 18 | 6.4 | 14.5 | 0.00 | 0.00 | 0.00 | 82 | 1019.9 |
| 20260510050405 | 8 | 25 | 6.4 | 19.3 | 0.00 | 0.00 | 0.00 | 82 | 1019.8 |
| 20260510045905 | 8 | 20 | 4.8 | 19.3 | 0.00 | 0.00 | 0.00 | 81 | 1019.7 |
| 20260510045404 | 8 | 26 | 6.4 | 14.5 | 0.00 | 0.00 | 0.00 | 81 | 1019.7 |
| 20260510044405 | 8 | 54 | 4.8 | 19.3 | 0.00 | 0.00 | 0.00 | 81 | 1019.7 |
| 20260510043904 | 8 | 45 | 8.0 | 16.1 | 0.00 | 0.00 | 0.00 | 81 | 1019.6 |
| 20260510042404 | 9 | 53 | 8.0 | 22.5 | 0.00 | 0.00 | 0.00 | 81 | 1019.6 |
| 20260510041906 | 9 | 30 | 4.8 | 19.3 | 0.00 | 0.00 | 0.00 | 82 | 1019.5 |
| 20260510041404 | 9 | 45 | 8.0 | 19.3 | 0.00 | 0.00 | 0.00 | 82 | 1019.7 |
| 20260510040905 | 9 | 31 | 3.2 | 16.1 | 0.00 | 0.00 | 0.00 | 82 | 1019.6 |
| 20260510035404 | 9 | 40 | 1.6 | 19.3 | 0.00 | 0.00 | 0.00 | 82 | 1019.6 |
| 20260510034905 | 9 | 30 | 4.8 | 22.5 | 0.00 | 0.00 | 0.00 | 82 | 1019.7 |
| 20260510034404 | 9 | 36 | 3.2 | 22.5 | 0.00 | 0.00 | 0.00 | 82 | 1019.7 |
| 20260510033904 | 9 | 31 | 6.4 | 22.5 | 0.00 | 0.00 | 0.00 | 82 | 1019.7 |
| 20260510033405 | 9 | 32 | 4.8 | 14.5 | 0.00 | 0.00 | 0.00 | 81 | 1019.7 |
| 20260510032404 | 9 | 12 | 3.2 | 19.3 | 0.00 | 0.00 | 0.00 | 81 | 1019.8 |
| 20260510031905 | 9 | 39 | 4.8 | 19.3 | 0.00 | 0.00 | 0.00 | 81 | 1019.9 |
| 20260510031405 | 9 | 49 | 8.0 | 16.1 | 0.00 | 0.00 | 0.00 | 81 | 1020.0 |
| 20260510030406 | 10 | 45 | 3.2 | 19.3 | 0.00 | 0.00 | 0.00 | 82 | 1020.0 |
| 20260510025904 | 10 | 38 | 3.2 | 19.3 | 0.00 | 0.00 | 0.00 | 82 | 1020.0 |
| 20260510025404 | 10 | 32 | 4.8 | 19.3 | 0.00 | 0.00 | 0.00 | 82 | 1020.1 |
| 20260510024904 | 10 | 38 | 4.8 | 14.5 | 0.00 | 0.00 | 0.00 | 82 | 1020.1 |
| 20260510024404 | 10 | 62 | 4.8 | 12.9 | 0.00 | 0.00 | 0.00 | 83 | 1020.2 |
| 20260510023905 | 10 | 30 | 4.8 | 12.9 | 0.00 | 0.00 | 0.00 | 82 | 1020.1 |
| 20260510023404 | 10 | 4 | 3.2 | 9.7 | 0.00 | 0.00 | 0.00 | 82 | 1020.1 |
| 20260510022905 | 10 | 39 | 3.2 | 14.5 | 0.00 | 0.00 | 0.00 | 82 | 1020.1 |
| 20260510022405 | 10 | 24 | 4.8 | 14.5 | 0.00 | 0.00 | 0.00 | 82 | 1020.1 |
| 20260510021904 | 10 | 44 | 1.6 | 12.9 | 0.00 | 0.00 | 0.00 | 82 | 1020.1 |
| 20260510021405 | 10 | 31 | 3.2 | 19.3 | 0.00 | 0.00 | 0.00 | 82 | 1020.1 |
| 20260510020904 | 10 | 37 | 3.2 | 19.3 | 0.00 | 0.00 | 0.00 | 82 | 1020.3 |
| 20260510020405 | 10 | 41 | 3.2 | 14.5 | 0.00 | 0.00 | 0.00 | 82 | 1020.3 |
| 20260510015904 | 10 | 54 | 8.0 | 14.5 | 0.00 | 0.00 | 0.00 | 82 | 1020.3 |
| 20260510015404 | 10 | 22 | 4.8 | 16.1 | 0.00 | 0.00 | 0.00 | 82 | 1020.4 |
| 20260510014905 | 10 | 26 | 6.4 | 16.1 | 0.00 | 0.00 | 0.00 | 82 | 1020.4 |
| 20260510014404 | 10 | 53 | 4.8 | 16.1 | 0.00 | 0.00 | 0.00 | 82 | 1020.4 |
| 20260510013905 | 10 | 32 | 6.4 | 16.1 | 0.00 | 0.00 | 0.00 | 82 | 1020.3 |
| 20260510012904 | 10 | 31 | 4.8 | 14.5 | 0.00 | 0.00 | 0.00 | 82 | 1020.3 |
| 20260510012404 | 10 | 24 | 3.2 | 16.1 | 0.00 | 0.00 | 0.00 | 82 | 1020.3 |
| 20260510011904 | 10 | 45 | 8.0 | 19.3 | 0.00 | 0.00 | 0.00 | 82 | 1020.3 |
| 20260510011404 | 10 | 51 | 6.4 | 19.3 | 0.00 | 0.00 | 0.00 | 83 | 1020.3 |
| 20260510010905 | 10 | 26 | 3.2 | 12.9 | 0.00 | 0.00 | 0.00 | 83 | 1020.3 |
| 20260510010404 | 10 | 31 | 4.8 | 14.5 | 0.00 | 0.00 | 0.00 | 83 | 1020.2 |
| 20260510005405 | 9 | 8 | 3.2 | 12.9 | 0.00 | 0.00 | 0.00 | 83 | 1020.0 |
| 20260510004904 | 9 | 48 | 4.8 | 12.9 | 0.00 | 0.00 | 0.00 | 83 | 1019.9 |
| 20260510004405 | 9 | 42 | 3.2 | 12.9 | 0.00 | 0.00 | 0.00 | 83 | 1019.9 |
| 20260510003906 | 9 | 19 | 4.8 | 12.9 | 0.00 | 0.00 | 0.00 | 83 | 1019.9 |
| 20260510002905 | 10 | 14 | 3.2 | 20.9 | 0.00 | 0.00 | 0.00 | 82 | 1019.8 |
| 20260510002404 | 10 | 23 | 6.4 | 19.3 | 0.00 | 0.00 | 0.00 | 83 | 1020.0 |
| 20260510001905 | 10 | 32 | 6.4 | 19.3 | 0.00 | 0.00 | 0.00 | 83 | 1020.1 |
| 20260510001405 | 10 | 21 | 3.2 | 12.9 | 0.00 | 0.00 | 0.00 | 83 | 1020.1 |
| 20260510000904 | 10 | 42 | 4.8 | 12.9 | 0.00 | 0.00 | 0.00 | 83 | 1020.2 |
| 20260509235905 | 10 | 36 | 6.4 | 14.5 | 0.00 | 0.00 | 0.00 | 82 | 1020.2 |
| 20260509235404 | 10 | 24 | 3.2 | 14.5 | 0.00 | 0.00 | 0.00 | 82 | 1020.1 |
| 20260509234904 | 10 | 25 | 6.4 | 14.5 | 0.00 | 0.00 | 0.00 | 82 | 1020.2 |
| 20260509234404 | 10 | 15 | 6.4 | 14.5 | 0.00 | 0.00 | 0.00 | 82 | 1020.2 |
| 20260509233904 | 10 | 52 | 4.8 | 11.3 | 0.00 | 0.00 | 0.00 | 82 | 1020.2 |
| 20260509233405 | 10 | 45 | 3.2 | 14.5 | 0.00 | 0.00 | 0.00 | 82 | 1020.3 |
| 20260509232905 | 10 | 57 | 4.8 | 20.9 | 0.00 | 0.00 | 0.00 | 82 | 1020.3 |
| 20260509232404 | 10 | 34 | 4.8 | 20.9 | 0.00 | 0.00 | 0.00 | 82 | 1020.4 |
| 20260509231905 | 10 | 36 | 4.8 | 16.1 | 0.00 | 0.00 | 0.00 | 82 | 1020.5 |
| 20260509231404 | 10 | 28 | 4.8 | 16.1 | 0.00 | 0.00 | 0.00 | 81 | 1020.4 |
| 20260509230405 | 10 | 61 | 4.8 | 19.3 | 0.00 | 0.00 | 0.00 | 81 | 1020.4 |
| 20260509225904 | 10 | 21 | 8.0 | 19.3 | 0.00 | 0.00 | 0.00 | 81 | 1020.3 |
| 20260509225404 | 10 | 42 | 8.0 | 19.3 | 0.00 | 0.00 | 0.00 | 81 | 1020.3 |
| 20260509224904 | 10 | 22 | 3.2 | 12.9 | 0.00 | 0.00 | 0.00 | 80 | 1020.2 |
| 20260509224405 | 10 | 35 | 6.4 | 12.9 | 0.00 | 0.00 | 0.00 | 79 | 1020.4 |
| 20260509223904 | 10 | 37 | 4.8 | 11.3 | 0.00 | 0.00 | 0.00 | 78 | 1020.4 |
| 20260509222904 | 10 | 48 | 3.2 | 9.7 | 0.00 | 0.00 | 0.00 | 77 | 1020.4 |
| 20260509222404 | 10 | 17 | 4.8 | 9.7 | 0.00 | 0.00 | 0.00 | 76 | 1020.4 |
| 20260509221404 | 10 | 51 | 3.2 | 12.9 | 0.00 | 0.00 | 0.00 | 75 | 1020.3 |
| 20260509220905 | 10 | 47 | 4.8 | 11.3 | 0.00 | 0.00 | 0.00 | 74 | 1020.3 |
| 20260509220404 | 11 | 52 | 1.6 | 9.7 | 0.00 | 0.00 | 0.00 | 73 | 1020.3 |
| 20260509214404 | 11 | 35 | 3.2 | 12.9 | 0.00 | 0.00 | 0.00 | 71 | 1020.1 |
| 20260509213904 | 11 | 49 | 4.8 | 11.3 | 0.00 | 0.00 | 0.00 | 69 | 1020.0 |
| 20260509213404 | 11 | 12 | 3.2 | 11.3 | 0.00 | 0.00 | 0.00 | 68 | 1019.9 |
| 20260509212905 | 11 | 34 | 3.2 | 14.5 | 0.00 | 0.00 | 0.00 | 67 | 1019.8 |
| 20260509212404 | 11 | 16 | 4.8 | 16.1 | 0.00 | 0.00 | 0.00 | 67 | 1019.9 |